Home   Weather   Toronto   Past weeks

Flag for Canada Past Weather in Toronto, Ontario, Canada — Yesterday and Last 2 Weeks

Now
32 °F

Passing clouds.


Feels Like: 26 °F
Forecast: 32 / 35 °F
Wind: 7 mph from Northeast

Location: Toronto Pearson International Airport

Current Time: Jan 24, 2017 at 4:24:31 am

Latest Report: Jan 24, 2017 at 4:00 am


Visibility: 15 mi

Pressure: 29.74 "Hg

Humidity: 80%

Dew Point: 27 °F

Location of TorontoLocation

Past Weather in Toronto — Graph

°F

Toronto Temperature Yesterday

Maximum temperature yesterday: 39 °F (at 1:00 pm)
Minimum temperature yesterday: 36 °F (at 12:14 am)
Average temperature yesterday: 36 °F

High & Low Weather Summary for the Past Weeks

 TemperatureHumidityPressure
High48 °F (Jan 12, 3:44 am)100% (Jan 10, 8:40 am)30.81 "Hg (Jan 10, 8:40 am)
Low16 °F (Jan 9, 3:00 am)48% (Jan 16, 3:00 pm)29.46 "Hg (Jan 11, 12:00 am)
Average33 °F82%30.03 "Hg
* Reported Jan 9 3:00 am — Jan 24 3:00 am, Toronto, Weather by CustomWeather, © 2017

Note: Actual official high and low records may vary slightly from our data, if they occured in-between our weather recording intervals... More about our weather records

Advertising

Toronto Weather History for the Previous 24 Hours

Scroll right to see more
 ConditionsComfort  
Time TempWeatherWind HumidityBarometerVisibility
3:00 am
Tue, Jan 24
32 °FPassing clouds.8 mph80%29.75 "Hg15 mi
2:00 am32 °FPartly cloudy.8 mph80%29.76 "Hg15 mi
1:00 am34 °FPartly cloudy.8 mph81%29.77 "Hg15 mi
12:00 am34 °FPartly cloudy.14 mph81%29.77 "Hg15 mi
11:00 pm
Mon, Jan 23
36 °FOvercast.12 mph75%29.79 "Hg15 mi
10:00 pm36 °FOvercast.12 mph81%29.80 "Hg15 mi
9:00 pm36 °FOvercast.9 mph81%29.80 "Hg15 mi
8:05 pm36 °FOvercast.12 mph81%29.83 "Hg15 mi
7:00 pm37 °FMostly cloudy.12 mph81%29.83 "Hg15 mi
6:00 pm37 °FPassing clouds.10 mph75%29.81 "Hg15 mi
5:00 pm37 °FBroken clouds.13 mph75%29.78 "Hg15 mi
4:00 pm39 °FPartly sunny.16 mph75%29.77 "Hg15 mi
3:00 pm39 °FOvercast.15 mph75%29.76 "Hg15 mi
2:00 pm37 °FOvercast.10 mph87%29.77 "Hg15 mi
1:00 pm39 °FOvercast.12 mph81%29.78 "Hg15 mi
12:00 pm37 °FLow clouds.12 mph87%29.82 "Hg15 mi
11:00 am36 °FLow clouds.13 mph100%29.83 "Hg8 mi
10:30 am36 °FFog.10 mph100%29.83 "Hg5 mi
10:00 am36 °FFog.8 mph100%29.83 "Hg4 mi
9:32 am36 °FFog.16 mph93%29.82 "Hg2 mi
9:00 am36 °FDrizzle. Fog.12 mph93%29.81 "Hg4 mi
8:00 am36 °FDrizzle. Fog.14 mph93%29.80 "Hg5 mi
7:00 am36 °FDrizzle. Fog.10 mph93%29.80 "Hg6 mi
6:35 am36 °FDrizzle. Fog.10 mph93%29.79 "Hg5 mi
6:00 am36 °FFog.12 mph93%29.79 "Hg6 mi
5:54 am36 °FFog.10 mph93%29.79 "Hg6 mi
5:00 am36 °FLow clouds.7 mph93%29.78 "Hg7 mi
4:00 am36 °FLow clouds.8 mph93%29.78 "Hg7 mi
Weather by CustomWeather, © 2017

See weather overviewHow to use our weather pages